Temperature
21 19 19 20 20 21 22 22 21 21 22 21 21 20 20 20 20 20 20 20 20 20 21 21 21 21 21 20 20 20 19 19 19 19 18 18 18 17 17 17 17 17 17 17
19 20 21 21 21 21 21 21 21 21 21 21 20 20 19 19 19 20 20 20 20 20 20 20 20 20 20 20 20 20 19 19 19 18 18 18 18 17 17 17 17 17 17 16
21 21 21 21 21 21 21 21 21 21 21 20 20 20 19 19 19 19 20 20 20 20 20 20 20 20 20 20 19 19 19 19 18 18 18 17 17 17 17 17 17 17 16 16
20 21 22 22 22 21 21 21 21 21 20 19 20 19 19 19 18 18 18 19 19 19 19 19 19 19 19 19 19 19 19 18 18 18 18 17 17 17 17 17 17 16 16 16
21 21 22 22 22 21 21 21 20 20 19 18 19 18 18 18 18 18 18 18 18 18 19 19 19 19 19 19 19 19 18 18 18 18 18 17 17 17 17 17 17 16 16 16
21 21 22 22 22 22 21 20 19 17 17 18 19 18 18 17 18 18 18 18 18 18 18 18 18 18 18 18 18 18 18 18 18 17 17 17 17 17 17 16 16 16 16 16
21 22 22 23 22 22 21 19 18 19 17 18 18 18 18 18 18 18 18 17 18 18 18 18 18 18 18 18 18 18 18 17 17 17 17 17 16 16 16 16 16 16 16 16
20 20 22 22 22 21 20 19 19 19 18 17 18 18 18 18 18 18 18 17 18 18 18 18 18 18 18 17 17 17 17 17 17 17 16 16 16 16 16 15 15 15 15 15
19 20 21 22 22 21 20 18 18 16 17 17 17 18 18 18 17 17 17 16 16 17 18 18 18 18 17 17 17 17 17 17 16 16 16 16 16 15 15 15 15 15 15 15
19 20 21 21 21 20 19 17 16 16 17 18 18 18 17 17 17 16 16 16 16 16 17 17 17 17 17 17 17 16 16 16 16 16 16 15 15 15 15 15 15 15 15 14
19 19 20 20 21 20 19 18 15 14 16 17 17 17 18 17 16 16 15 16 16 16 17 17 17 16 16 16 16 16 16 16 16 15 15 15 15 15 15 15 15 14 14 14
17 17 18 19 20 20 20 18 16 17 17 15 16 17 17 16 16 15 16 16 16 16 16 16 16 16 16 16 16 16 16 15 15 15 15 15 14 14 14 14 14 14 14 14
17 17 17 19 19 19 19 18 16 15 14 14 16 17 16 16 15 16 15 15 16 16 16 16 16 16 16 16 16 15 15 15 15 15 14 14 14 14 14 14 14 14 14 14
17 15 17 18 18 18 19 18 17 16 15 15 16 17 16 15 15 15 15 15 15 15 15 16 16 15 15 15 15 15 15 15 14 14 14 14 14 14 14 14 14 13 13 13
16 16 17 17 18 18 18 18 18 17 16 17 17 16 16 15 15 15 15 15 15 15 15 15 15 15 15 15 15 15 14 14 14 14 14 14 13 13 13 13 13 13 13 13
14 16 17 18 18 18 18 18 18 17 17 16 17 16 15 15 15 15 14 14 14 15 15 15 15 15 15 15 14 14 14 14 14 13 13 13 13 13 13 13 13 12 12 12
14 15 16 16 17 18 17 17 17 17 16 16 16 16 14 14 14 14 14 14 15 15 15 15 15 15 15 14 14 14 14 13 13 13 13 13 13 13 12 12 12 12 12 12
14 13 13 14 17 17 16 17 17 16 16 15 15 15 14 14 14 15 15 15 15 15 15 15 15 15 14 14 14 14 13 13 13 13 13 12 12 12 12 12 12 12 12 12
13 13 13 13 15 16 16 17 16 16 16 15 14 14 13 14 14 14 15 15 15 15 15 15 15 14 14 14 13 13 13 13 13 12 12 12 12 12 12 12 12 11 11 11
12 12 13 13 15 15 16 17 17 16 15 15 14 13 13 14 13 13 15 15 15 15 15 14 14 14 14 13 13 13 13 13 12 12 12 12 12 11 11 11 11 11 11 11
13 13 13 13 14 14 15 16 16 16 15 15 15 14 14 14 14 15 15 15 15 15 14 14 14 13 13 13 13 13 12 12 12 12 12 12 11 11 11 11 11 11 11 11
13 13 12 12 14 14 15 15 15 14 15 15 15 15 15 15 15 15 15 15 14 14 14 13 13 13 13 13 12 12 12 12 12 12 11 11 11 11 11 11 11 11 11 10
12 12 12 12 13 13 14 15 16 16 15 15 15 15 15 15 15 15 14 14 14 14 14 13 13 13 12 12 12 12 12 11 11 11 11 11 11 11 10 10 10 10 10 10
12 11 11 12 12 13 14 15 15 16 16 16 15 15 15 15 15 14 14 14 14 13 13 13 13 12 12 12 11 11 11 11 11 11 11 10 10 10 10 10 10 10 10 10
12 11 11 12 12 13 14 15 15 16 16 15 15 15 15 15 14 14 14 13 13 13 13 13 12 12 12 12 11 11 11 11 11 10 10 10 10 10 10 10 10 10 10 9
11 11 12 12 13 12 14 15 15 15 15 15 15 15 14 14 14 14 13 13 13 13 12 12 12 12 12 11 11 11 11 10 10 10 10 10 10 10 10 10 10 10 9 9
Wind_Speed
3 4 4 7 7 6 4 4 3 4 2 2 2 1 1 3 5 5 5 5 6 5 3 4 5 5 5 4 4 5 5 4 4 3 3 2 1 0 0 0 1 2 2 2
5 3 7 5 4 4 4 3 1 2 1 2 2 1 0 2 5 6 7 7 7 5 3 4 5 5 5 5 5 5 5 4 4 3 3 2 2 1 1 1 2 1 2 2
6 5 3 5 4 4 4 6 5 4 2 3 3 3 1 1 0 1 1 3 4 6 6 4 4 4 4 4 5 5 5 4 3 3 3 3 2 1 1 0 1 1 1 2
4 5 2 3 4 6 4 5 6 5 3 1 3 2 4 2 0 2 2 3 3 3 4 4 4 4 4 3 4 4 4 4 3 4 4 4 3 2 2 1 1 0 1 1
5 3 4 4 6 7 5 2 4 4 4 1 1 3 5 0 2 4 4 4 3 4 4 4 4 4 3 3 3 3 4 3 3 3 4 4 3 2 1 0 0 0 0 0
5 3 4 6 3 5 5 6 7 6 5 1 3 5 5 4 6 4 4 4 4 4 4 4 3 4 3 3 3 3 3 2 2 3 3 4 3 3 2 1 0 0 1 1
4 4 3 3 2 2 5 6 4 4 3 5 2 3 6 4 4 5 5 5 4 5 5 5 4 4 3 3 2 3 3 2 2 3 2 2 2 3 2 1 1 0 1 1
1 5 4 2 5 5 4 8 8 5 5 3 1 3 5 3 1 2 4 4 5 5 5 5 4 4 4 3 3 3 3 2 2 2 2 1 2 1 1 1 1 1 1 2
5 5 5 2 2 7 5 4 6 7 3 1 2 3 4 1 2 3 4 5 5 4 4 4 3 3 3 3 3 4 3 2 1 1 2 2 1 2 2 1 1 1 1 1
7 3 4 3 4 5 5 8 6 6 6 2 3 3 4 4 4 2 3 4 4 3 3 3 3 3 2 2 2 2 3 2 1 1 1 1 0 1 1 1 1 1 1 1
5 4 4 3 1 2 3 4 5 5 5 6 3 5 4 7 7 7 5 5 5 4 3 3 3 2 2 3 2 2 2 2 2 1 1 1 0 1 1 0 2 2 1 1
4 5 1 4 4 2 3 5 6 5 3 4 5 6 3 4 5 6 5 4 4 4 3 4 3 3 3 3 2 2 2 2 1 1 2 2 1 1 1 1 2 1 1 1
5 5 2 5 4 3 2 2 4 6 5 5 5 5 2 2 4 4 5 5 4 4 4 3 4 3 3 2 2 2 1 1 1 2 3 2 1 1 1 1 2 1 1 1
5 4 6 8 6 3 1 0 3 6 5 5 6 5 2 2 4 4 5 5 5 5 4 4 3 2 2 2 2 1 1 1 1 2 2 1 0 1 1 2 2 2 1 1
5 4 3 3 2 3 1 1 2 4 7 7 7 6 6 7 7 6 5 5 5 5 4 4 3 2 2 2 1 1 1 1 1 1 1 0 1 1 1 2 2 2 2 2
4 4 2 0 0 2 1 2 1 2 3 4 4 4 4 4 5 5 5 6 6 5 4 3 3 2 2 2 1 1 1 0 1 1 1 1 1 1 2 2 2 2 3 3
2 4 3 2 3 2 2 3 2 1 1 5 6 5 4 5 7 7 6 6 6 5 4 4 3 3 2 1 2 1 1 1 1 1 1 1 1 1 2 2 2 3 3 2
5 4 3 2 2 3 6 3 2 3 0 1 2 3 6 6 5 3 4 6 6 5 4 3 2 2 1 1 2 1 2 2 1 1 1 1 1 1 2 2 2 3 2 2
4 6 4 4 2 3 5 2 2 3 1 1 3 4 5 6 5 3 0 3 5 5 4 3 3 2 2 2 2 3 2 2 1 1 1 2 1 2 2 2 3 3 2 3
5 5 5 4 4 5 6 3 1 4 2 3 5 7 7 6 4 3 2 3 4 4 3 3 3 3 2 1 2 3 2 1 1 2 2 2 2 2 2 3 3 3 3 3
3 4 3 3 3 5 4 3 2 3 6 3 5 7 8 5 5 4 4 4 4 4 3 4 4 3 1 1 2 2 1 1 3 2 2 2 2 2 3 3 3 3 2 2
4 4 3 3 3 5 3 2 4 5 2 3 5 5 6 5 4 4 5 5 4 4 3 3 3 2 1 2 3 2 1 3 2 1 2 2 3 3 2 2 3 2 2 2
3 4 5 6 5 4 2 3 2 3 3 3 5 5 6 5 4 4 4 4 3 3 3 3 3 2 0 1 2 1 2 2 1 1 2 3 3 3 2 2 2 2 2 2
1 2 3 1 3 3 2 1 1 2 3 3 4 5 6 5 5 4 4 4 3 3 3 2 3 2 1 1 1 2 2 1 0 1 2 2 2 3 3 2 2 2 2 2
2 2 2 1 3 3 4 2 0 1 3 4 3 3 6 7 5 4 4 4 4 3 2 3 3 3 3 2 2 2 1 1 0 1 2 2 2 3 3 3 3 3 3 4
2 4 4 5 5 4 3 2 0 3 2 4 4 3 3 4 5 4 4 4 3 3 3 3 3 3 3 3 3 2 1 1 1 1 2 2 3 3 3 3 4 5 5 6
Wind_Direction
77 92 196 213 194 185 173 174 221 251 251 103 155 206 260 175 160 169 175 182 190 198 191 163 160 151 140 139 143 142 146 147 144 137 136 130 138 117 35 31 91 113 116 112
56 248 228 194 164 148 166 183 225 318 39 125 131 39 297 183 189 188 187 192 193 180 156 155 148 141 147 154 151 147 147 150 165 168 150 139 133 131 115 28 36 73 108 117
184 235 178 148 158 168 200 190 194 197 28 50 99 2 317 280 108 98 179 187 185 183 168 157 145 146 145 152 161 162 153 154 154 145 114 94 81 68 73 10 290 305 147 133
221 252 161 164 205 171 241 216 177 170 133 258 131 204 270 242 179 188 195 189 178 157 142 147 149 147 153 158 146 139 140 144 150 146 144 149 161 180 213 221 224 326 76 121
241 209 172 206 224 175 206 131 137 150 146 100 36 150 275 254 235 231 213 201 188 163 148 149 149 151 138 122 124 128 123 124 130 134 142 148 158 183 189 136 84 334 342 92
243 235 195 206 202 165 143 74 62 53 83 151 231 163 254 225 217 216 206 199 190 172 155 143 128 110 100 96 101 107 112 113 123 131 130 140 154 152 133 145 225 286 301 319
318 302 260 184 108 51 99 97 44 8 18 242 247 166 239 244 224 205 199 201 192 169 158 148 142 133 120 117 122 110 112 102 107 123 132 150 159 157 163 184 208 232 282 274
204 290 274 211 180 176 161 143 160 190 210 256 347 215 249 268 250 175 169 168 159 161 162 162 165 157 150 144 145 133 130 121 123 141 160 160 155 159 187 202 200 212 236 255
180 254 291 275 189 141 137 168 161 134 135 132 275 284 304 47 74 98 116 129 147 162 161 157 146 141 140 151 162 159 152 139 142 162 165 173 188 185 199 209 206 223 242 256
160 221 296 318 61 43 135 145 107 124 146 204 276 259 244 235 210 174 150 152 164 161 157 139 131 138 148 160 149 137 141 151 134 129 137 142 195 217 214 198 240 247 269 287
140 163 305 17 86 188 105 96 106 115 149 156 209 259 228 208 201 190 188 176 164 162 159 149 141 135 123 108 112 109 111 102 105 131 129 112 72 42 56 273 267 267 283 284
138 129 244 273 270 246 150 151 148 152 194 167 169 251 291 207 190 177 174 164 153 146 140 142 134 120 117 115 108 105 104 111 131 140 120 112 82 44 39 308 293 285 283 287
129 116 87 339 330 0 68 117 136 128 119 148 165 247 346 109 142 158 165 160 147 134 121 118 123 130 140 135 126 122 124 139 122 104 100 86 72 35 320 299 300 302 294 296
116 114 162 194 219 210 252 152 147 129 143 184 207 217 256 170 164 170 166 157 146 138 133 123 130 145 148 149 146 130 98 95 100 96 105 108 38 285 291 309 326 326 323 318
102 141 184 208 212 161 168 258 161 170 179 183 211 202 221 203 189 180 165 153 145 141 140 143 148 156 147 136 131 121 114 79 84 83 77 75 345 354 353 346 337 339 341 323
71 137 135 17 240 146 82 337 239 191 178 177 166 228 233 168 143 148 160 159 162 166 164 159 153 140 138 148 152 119 91 82 100 93 356 357 23 18 355 338 337 339 336 330
83 124 123 222 298 40 314 285 228 216 192 165 191 216 152 145 164 174 175 170 176 175 166 166 164 160 162 154 137 141 154 97 89 71 13 355 1 350 322 326 337 323 313 318
138 117 125 133 84 213 244 268 158 137 20 177 165 158 155 156 150 131 150 164 171 169 167 168 158 150 147 140 126 111 90 85 83 40 355 337 344 315 314 327 313 301 297 292
139 134 123 126 158 265 291 281 185 155 293 250 163 142 124 113 83 34 95 164 171 169 166 163 157 152 143 135 122 106 90 87 77 340 299 290 285 290 303 307 297 288 292 289
65 90 113 127 153 220 244 275 197 113 289 238 165 155 143 122 134 228 208 156 149 139 135 132 120 110 114 116 110 111 109 101 251 264 269 281 283 280 284 285 285 288 285 279
61 61 103 141 188 254 267 294 103 157 236 211 168 162 155 166 185 174 138 136 141 134 132 124 118 119 145 144 118 119 135 250 261 275 292 308 309 291 286 293 296 294 294 302
160 146 162 142 170 249 294 99 166 211 199 148 152 159 159 159 141 131 131 136 134 124 124 128 125 123 108 125 128 124 263 277 302 334 338 326 323 316 320 314 310 313 310 311
174 183 179 183 207 244 259 208 215 161 156 170 159 159 149 144 147 139 139 142 141 143 145 146 145 137 90 130 145 181 274 304 334 356 333 320 322 323 329 314 308 318 318 304
283 110 121 197 277 291 320 343 45 139 162 156 150 143 140 146 154 149 151 156 157 161 163 156 145 152 216 250 242 240 272 290 1 310 304 307 313 315 322 314 296 291 287 284
233 134 113 258 291 347 343 332 339 111 120 120 120 132 144 142 150 157 166 178 182 177 174 167 173 198 231 246 261 274 271 207 259 295 301 305 300 297 304 301 280 271 262 250
215 178 174 219 219 190 247 273 173 122 143 150 137 125 136 153 164 164 175 188 182 182 176 178 200 220 240 247 261 274 264 210 211 286 297 297 300 297 289 291 299 275 262 272
Height
1487 1494 1499 1497 1495 1497 1500 1504 1507 1503 1497 1501 1504 1505 1502 1500 1502 1504 1505 1507 1508 1509 1511 1513 1515 1517 1519 1521 1522 1523 1524 1526 1526 1527 1528 1529 1529 1530 1530 1531 1531 1532 1532 1532
1493 1496 1489 1489 1492 1495 1499 1504 1506 1503 1498 1501 1505 1506 1502 1501 1501 1502 1504 1505 1507 1508 1510 1512 1513 1516 1517 1519 1520 1522 1523 1524 1526 1526 1527 1528 1529 1530 1530 1531 1531 1531 1531 1531
1492 1489 1485 1489 1492 1496 1499 1502 1503 1504 1502 1501 1505 1510 1506 1503 1503 1504 1504 1505 1506 1507 1508 1510 1512 1514 1516 1517 1519 1521 1522 1523 1525 1525 1526 1527 1529 1529 1528 1529 1529 1529 1529 1529
1488 1484 1485 1488 1491 1493 1500 1492 1495 1500 1509 1516 1510 1525 1511 1506 1505 1504 1504 1505 1505 1507 1508 1509 1511 1512 1514 1516 1518 1520 1521 1523 1524 1524 1525 1526 1526 1527 1527 1528 1528 1528 1528 1529
1487 1483 1484 1488 1486 1487 1491 1488 1493 1499 1508 1517 1515 1523 1517 1507 1507 1504 1503 1503 1505 1506 1507 1508 1510 1512 1514 1516 1518 1520 1521 1521 1522 1523 1524 1525 1525 1526 1526 1526 1526 1527 1527 1527
1482 1479 1479 1481 1480 1482 1485 1492 1499 1508 1515 1526 1517 1522 1520 1510 1504 1501 1501 1502 1503 1505 1507 1508 1510 1512 1514 1516 1517 1519 1520 1521 1521 1522 1523 1524 1524 1525 1525 1525 1525 1525 1526 1526
1486 1480 1477 1476 1481 1483 1487 1503 1521 1523 1532 1529 1515 1518 1516 1501 1498 1498 1499 1500 1502 1504 1506 1508 1509 1511 1513 1514 1515 1517 1519 1519 1520 1521 1522 1522 1523 1523 1523 1524 1524 1524 1524 1524
1495 1495 1478 1475 1478 1485 1489 1498 1519 1529 1532 1527 1516 1518 1508 1497 1496 1496 1497 1499 1501 1503 1505 1506 1508 1510 1511 1513 1515 1516 1517 1518 1518 1519 1520 1521 1522 1522 1522 1522 1523 1523 1523 1523
1495 1493 1476 1473 1473 1478 1490 1497 1498 1517 1523 1527 1522 1513 1503 1496 1496 1497 1497 1498 1500 1502 1504 1505 1507 1509 1510 1512 1513 1514 1515 1516 1517 1518 1518 1519 1520 1520 1521 1521 1521 1521 1521 1521
1483 1490 1479 1475 1475 1478 1482 1491 1505 1516 1528 1530 1521 1516 1511 1500 1498 1497 1498 1498 1499 1501 1503 1505 1506 1508 1509 1511 1512 1513 1514 1515 1516 1517 1517 1518 1518 1519 1519 1519 1520 1519 1519 1519
1478 1489 1486 1481 1483 1485 1487 1493 1502 1513 1514 1526 1529 1519 1495 1495 1494 1495 1496 1497 1499 1501 1503 1505 1506 1507 1509 1510 1511 1512 1513 1514 1515 1515 1516 1516 1517 1517 1518 1518 1518 1517 1517 1517
1479 1490 1496 1487 1480 1478 1480 1487 1497 1508 1514 1517 1520 1515 1490 1490 1491 1493 1495 1497 1499 1500 1503 1504 1506 1507 1508 1509 1510 1511 1512 1513 1514 1514 1515 1515 1515 1516 1516 1516 1516 1515 1515 1515
1478 1490 1502 1498 1492 1484 1484 1486 1491 1499 1510 1518 1519 1509 1490 1489 1491 1493 1494 1496 1498 1500 1502 1504 1505 1507 1508 1509 1510 1511 1511 1512 1513 1514 1514 1514 1515 1515 1515 1514 1514 1514 1513 1513
1473 1488 1496 1501 1495 1488 1487 1486 1489 1495 1507 1512 1507 1500 1493 1491 1492 1493 1494 1495 1497 1499 1501 1502 1504 1506 1507 1508 1509 1510 1511 1512 1512 1513 1513 1513 1514 1514 1513 1513 1512 1512 1511 1510
1473 1486 1486 1486 1483 1483 1485 1485 1486 1489 1493 1498 1496 1495 1491 1489 1490 1491 1493 1495 1497 1499 1500 1502 1503 1505 1507 1508 1509 1509 1510 1511 1512 1512 1512 1512 1512 1512 1512 1511 1510 1510 1509 1508
1476 1484 1485 1486 1483 1483 1485 1484 1484 1485 1487 1489 1490 1492 1486 1487 1489 1492 1493 1495 1496 1498 1500 1502 1503 1505 1506 1507 1508 1509 1510 1511 1511 1511 1511 1511 1511 1511 1510 1509 1509 1508 1507 1506
1481 1484 1491 1494 1487 1484 1493 1487 1485 1485 1484 1486 1489 1487 1486 1488 1489 1490 1492 1494 1496 1498 1500 1502 1503 1505 1506 1507 1508 1509 1510 1510 1510 1510 1510 1510 1510 1509 1509 1508 1507 1506 1505 1504
1480 1486 1494 1497 1493 1500 1492 1481 1481 1483 1484 1483 1482 1483 1484 1486 1488 1490 1492 1494 1496 1498 1500 1502 1503 1505 1506 1507 1508 1508 1509 1509 1509 1509 1509 1509 1508 1508 1507 1506 1505 1504 1503 1502
1475 1483 1494 1501 1501 1497 1488 1481 1481 1483 1486 1483 1482 1483 1485 1487 1490 1492 1493 1494 1496 1498 1500 1502 1503 1504 1506 1506 1507 1507 1508 1508 1508 1508 1507 1507 1506 1506 1505 1504 1503 1502 1501 1499
1477 1480 1491 1498 1499 1501 1488 1478 1477 1481 1488 1481 1481 1483 1485 1487 1493 1493 1492 1494 1496 1498 1500 1501 1503 1504 1505 1506 1506 1507 1507 1507 1506 1506 1506 1505 1504 1503 1502 1502 1501 1500 1498 1497
1484 1488 1493 1497 1497 1492 1481 1477 1478 1490 1487 1479 1479 1481 1483 1485 1488 1489 1491 1493 1495 1497 1499 1501 1502 1503 1504 1505 1505 1505 1505 1505 1505 1505 1504 1503 1502 1501 1500 1499 1498 1497 1496 1495
1485 1490 1494 1497 1498 1494 1478 1477 1481 1481 1477 1478 1479 1481 1483 1484 1486 1488 1491 1493 1495 1497 1499 1500 1501 1502 1503 1503 1504 1504 1504 1504 1503 1503 1502 1501 1500 1500 1498 1497 1496 1495 1494 1493
1482 1483 1485 1487 1488 1480 1477 1476 1476 1476 1477 1478 1479 1481 1483 1485 1487 1489 1491 1493 1495 1496 1498 1500 1500 1501 1502 1502 1502 1502 1502 1502 1501 1501 1500 1499 1498 1497 1496 1495 1494 1493 1492 1491
1479 1479 1481 1483 1479 1477 1476 1476 1476 1476 1477 1478 1480 1481 1483 1484 1486 1489 1491 1493 1495 1496 1498 1499 1499 1500 1500 1500 1500 1500 1500 1500 1499 1498 1498 1497 1496 1495 1494 1493 1492 1490 1489 1488
1478 1479 1481 1481 1478 1476 1476 1476 1476 1476 1477 1479 1480 1482 1483 1484 1486 1488 1490 1492 1493 1494 1496 1497 1497 1498 1498 1499 1499 1498 1498 1498 1497 1496 1495 1494 1493 1492 1491 1490 1489 1488 1487 1487
1476 1477 1479 1479 1476 1477 1476 1476 1477 1477 1477 1479 1480 1481 1483 1484 1486 1488 1489 1490 1492 1493 1494 1495 1496 1496 1496 1496 1496 1496 1496 1495 1494 1493 1493 1492 1491 1490 1488 1487 1487 1486 1485 1484